Location: Newark
(41.6500°N, 71.4833°W)
Time: 11:55:40
(UTC+00:00)

Transit 2A Rocket - Pass Details

Date: 26 January 2020
Orbit: 591 x 912 km, 66.7° (Epoch: 24 February)

Event Time Altitude Azimuth Distance (km) Brightness Sun altitude
Rises 10:05:10 0° 223° (SW) 2,839 - -22.1°
Reaches altitude 10° 10:07:28 10° 228° (SW) 1,924 - -21.7°
Maximum altitude 10:11:37 49° 304° (NW) 770 - -20.9°
Exits shadow 10:12:06 46° 327° (NNW) 798 4.8 -20.8°
Drops below altitude 10° 10:15:50 10° 20° (NNE) 1,946 7.2 -20.2°
Sets 10:18:10 0° 26° (NNE) 2,876 8.2 -19.7°
